Weather in Zelyonoye

Russia / Zabaykalsky Krai     53°41′18″N   116°35′26″E
temp.,
°C
wind,
m/s
gust,
m/s
humid.,
%
clouds,
%
prec.,
mm/h
press.,
hPa
HPBL,
m
15 may, sat
sat1500:00+1nnw229460 0.0 101218
03:000nw22935 0.0 101323
06:00−1nw22850 0.0 101431
09:00+6nw24503 0.0 1012790
12:00+11nw24285 0.0 10092132
15:00+13nw45200 0.0 10062554
18:00+13nnw35200 0.0 10042525
21:00+6ese11391 0.0 100510
16 may, sun
sun1600:00+4sw114487 0.0 100511
03:00+2wsw2263100 0.0 100647
06:000wsw27621 0.0 1006223
09:00+8wnw59385 0.0 10031211
12:00+13wnw6925100 0.0 10011959
15:00+13w594091 0.0 9992164
18:00+11wnw5126017 0.6 9981561
21:00+8nnw612405 0.8 1001993
17 may, mon
mon1700:00+2nnw255828 0.0 1006110
03:00−1wnw22653 0.0 100723
06:00−1w116330 0.0 100712
09:00+6sw1333100 0.0 1005956
12:00+8sw3434100 0.0 10021934
15:00+9ssw3436100 0.0 9992012
18:00+8wsw3459100 0.3 9981232
21:00+4nnw1593100 1.4 1001523
18 may, tue
tue1800:000w22934 0.3 100323
03:00−2wnw23894 0.4 100553
06:00−3wnw218920 0.0 100733
09:00+3wnw345578 0.3 10051391
12:00+7wnw5822100 0.4 10033248
15:00+8wnw61017100 0.4 10023886
18:00+7nw5122027 0.0 10023436
21:00+2nw36320 0.0 1005144
19 may, wed
wed1900:00−2w114326 0.0 100710
03:00−2ssw1140100 0.0 100611
06:00−1ne1141100 0.4 100554
09:00+5ssw122916 0.5 1002818
12:00+9w4824100 0.0 10002983
15:00+11wnw4921100 0.0 9983311
18:00+11wnw582397 0.0 9972709
21:00+6nw2538100 0.0 1000115